Lapse_Rate
5.7 5.7 5.7 6.0 5.9 5.8 5.8 5.8 5.8 5.9 5.7 5.5 5.2 5.0 4.8 4.1 3.7 3.8 3.7 3.3 3.0 3.3
5.6 5.7 5.8 6.0 5.8 5.7 5.7 5.8 5.8 5.7 5.4 5.4 5.3 4.3 3.9 3.9 3.8 3.5 3.2 3.3 3.9 4.2
5.7 5.6 6.0 5.9 5.7 5.7 5.7 5.8 5.8 5.7 5.3 5.0 4.6 4.5 3.8 3.4 3.6 3.7 3.9 4.1 4.5 5.0
5.6 6.0 6.0 5.8 5.7 5.9 6.0 6.0 5.7 5.4 5.2 4.9 4.7 3.5 3.4 3.4 3.8 4.2 4.4 4.8 5.4 5.8
5.9 5.8 5.8 5.7 5.9 6.0 5.9 5.7 5.5 5.3 5.1 4.9 4.3 4.2 3.8 3.2 3.8 4.4 5.1 5.6 6.0 6.0
5.9 5.9 5.8 5.9 6.0 5.9 5.8 5.6 5.5 5.2 4.9 4.3 4.3 3.8 3.4 3.7 4.4 5.2 5.5 6.1 6.2 6.2
5.8 5.8 5.9 6.1 6.0 5.9 5.7 5.6 5.5 5.1 4.8 4.5 4.1 3.7 3.5 4.3 4.9 5.3 6.1 6.3 6.4 6.6
5.9 5.9 6.0 5.9 5.8 5.8 5.6 5.6 5.2 4.8 4.6 4.1 3.9 3.8 4.3 5.1 5.5 5.8 6.2 6.5 6.6 6.5
5.6 6.1 5.8 5.6 5.7 5.6 5.5 5.3 4.9 4.4 3.9 4.1 4.0 4.6 4.8 5.5 6.0 6.4 6.5 6.4 6.5 6.4
5.2 5.7 5.6 5.6 5.6 5.5 5.2 5.0 4.4 3.9 3.7 4.1 4.0 5.0 5.3 5.8 6.4 6.5 6.5 6.5 6.4 6.4
5.1 5.5 5.5 5.5 5.5 5.2 4.8 4.0 3.9 3.8 3.7 3.8 4.2 5.3 5.7 6.2 6.6 6.7 6.7 6.6 6.5 6.4
5.1 5.3 5.5 5.5 5.3 4.9 4.8 4.0 3.7 4.0 4.1 4.3 4.6 5.7 6.0 6.5 6.8 6.9 6.8 6.6 6.5 6.5
4.7 5.1 5.4 5.3 5.1 4.9 4.5 4.1 4.0 4.3 4.5 4.8 5.1 5.8 6.3 6.7 6.8 6.8 6.8 6.7 6.4 6.3
4.9 5.1 5.3 5.2 5.2 4.9 4.6 4.8 5.1 5.1 4.9 5.3 5.6 6.1 6.7 6.8 6.9 7.0 6.9 6.7 6.4 6.1
Wind_Speed
5 4 4 4 5 5 6 7 12 12 14 12 7 3 3 7 6 8 8 8 8 8
5 5 3 3 4 5 7 8 11 13 10 5 8 6 12 7 10 8 5 7 8 8
5 3 0 3 5 6 7 9 10 10 11 6 9 11 12 10 10 8 6 6 9 10
6 4 2 3 4 6 8 9 9 9 9 10 10 12 12 11 12 10 8 9 11 12
6 5 3 3 5 6 8 10 9 9 9 11 11 11 9 10 9 10 10 11 11 12
7 6 4 5 5 6 8 9 9 9 9 10 8 10 10 9 9 10 10 11 12 12
6 6 5 6 6 7 8 9 8 9 8 9 8 9 9 9 9 10 11 11 12 13
6 7 8 7 8 7 8 8 9 7 8 7 8 4 6 9 10 9 10 11 11 11
6 7 8 8 9 9 9 9 9 8 8 7 6 11 7 5 8 10 10 11 11 10
6 7 8 10 10 10 9 8 10 8 9 6 1 11 4 3 7 9 10 10 9 9
6 8 10 11 11 10 9 10 8 8 7 7 7 12 4 5 9 8 9 9 9 9
7 9 10 11 11 10 10 10 9 8 6 7 8 12 5 6 7 7 8 7 8 6
8 9 11 11 11 11 10 10 8 7 5 3 3 11 7 5 5 6 6 7 7 4
9 10 11 11 10 11 11 10 4 2 5 5 5 8 9 4 5 4 5 6 6 5
Wind_Direction
73 75 39 23 343 331 333 332 329 322 318 312 346 358 296 289 287 276 275 323 307 301
125 86 47 343 336 346 336 327 330 317 307 4 290 296 288 281 270 285 289 290 295 306
141 137 248 337 350 337 326 316 318 314 310 277 259 279 278 297 311 282 286 305 308 308
165 185 249 327 333 328 318 315 313 311 307 301 290 289 299 302 279 294 301 298 304 305
191 217 260 306 316 319 307 310 306 303 293 291 304 306 300 285 303 294 299 299 312 318
203 230 262 281 297 302 308 304 299 292 294 302 307 288 289 283 296 304 315 314 319 312
222 245 258 269 285 298 300 296 289 285 310 306 301 302 301 309 308 311 304 306 314 316
222 244 254 265 275 288 292 289 283 289 287 289 288 326 353 323 310 311 310 310 311 312
240 254 265 272 279 276 283 294 289 294 283 280 278 99 67 341 316 308 309 313 314 311
252 265 268 270 275 274 286 288 287 299 297 288 268 117 108 323 304 304 315 312 310 312
266 266 269 273 275 276 279 285 291 288 291 278 115 133 135 287 288 309 313 312 308 306
279 282 280 283 287 287 281 286 289 289 299 284 142 138 160 278 306 308 309 305 301 322
294 291 292 293 292 286 278 278 276 276 266 24 141 153 173 256 303 304 299 301 306 168
302 299 302 300 297 293 285 283 287 266 255 231 219 168 176 216 292 300 309 304 306 315